Time,TemperatureF,DewpointF,PressureIn,WindDirection,WindDirectionDegrees,WindSpeedMPH,WindSpeedGustMPH,Humidity,HourlyPrecipIn,Conditions,Clouds,dailyrainin,SolarRadiationWatts/m^2,SoftwareType,DateUTC
2013-01-26 00:03:00,30.0,29.0,-100.00,East,79,3.0,7.0,97,0.00,,,0.00,0.000000,,2013-01-26 05:03:00,
2013-01-26 00:11:00,30.0,29.0,-100.00,East,96,2.0,6.0,97,0.00,,,0.00,0.000000,,2013-01-26 05:11:00,
2013-01-26 00:33:00,30.0,29.0,-100.00,East,96,2.0,6.0,97,0.00,,,0.00,0.000000,,2013-01-26 05:33:00,
2013-01-26 00:42:00,30.0,29.0,-100.00,East,96,2.0,6.0,97,0.00,,,0.00,0.000000,,2013-01-26 05:42:00,
2013-01-26 00:53:00,30.0,29.0,-100.00,East,96,2.0,6.0,97,0.00,,,0.00,0.000000,,2013-01-26 05:53:00,
2013-01-26 01:03:00,30.0,29.0,-100.00,East,96,2.0,6.0,97,0.00,,,0.00,0.000000,,2013-01-26 06:03:00,
2013-01-26 01:11:00,30.0,29.0,-100.00,East,86,3.0,7.0,97,0.00,,,0.00,0.000000,,2013-01-26 06:11:00,
2013-01-26 01:32:00,30.0,29.0,-100.00,East,86,3.0,7.0,97,0.00,,,0.00,0.000000,,2013-01-26 06:32:00,
2013-01-26 01:42:00,30.0,29.0,-100.00,East,86,3.0,7.0,97,0.00,,,0.00,0.000000,,2013-01-26 06:42:00,
2013-01-26 01:52:00,30.0,29.0,-100.00,East,86,3.0,7.0,97,0.00,,,0.00,0.000000,,2013-01-26 06:52:00,
2013-01-26 02:02:00,30.0,29.0,-100.00,East,86,3.0,7.0,97,0.00,,,0.00,0.000000,,2013-01-26 07:02:00,
2013-01-26 02:11:00,29.0,28.0,-100.00,East,90,4.0,9.0,96,0.00,,,0.00,0.000000,,2013-01-26 07:11:00,
2013-01-26 02:33:00,29.0,28.0,-100.00,East,90,4.0,9.0,96,0.00,,,0.00,0.000000,,2013-01-26 07:33:00,
2013-01-26 02:42:00,29.0,28.0,-100.00,East,90,4.0,9.0,96,0.00,,,0.00,0.000000,,2013-01-26 07:42:00,
2013-01-26 02:52:00,29.0,28.0,-100.00,East,90,4.0,9.0,96,0.00,,,0.00,0.000000,,2013-01-26 07:52:00,
2013-01-26 03:02:00,29.0,28.0,-100.00,East,90,4.0,9.0,96,0.00,,,0.00,0.000000,,2013-01-26 08:02:00,
2013-01-26 03:11:00,28.0,26.0,-100.00,East,100,3.0,10.0,93,0.00,,,0.00,0.000000,,2013-01-26 08:11:00,
2013-01-26 03:42:00,28.0,26.0,-100.00,East,100,3.0,10.0,93,0.00,,,0.00,0.000000,,2013-01-26 08:42:00,
2013-01-26 03:54:00,28.0,26.0,-100.00,East,100,3.0,10.0,93,0.00,,,0.00,0.000000,,2013-01-26 08:54:00,
2013-01-26 04:02:00,28.0,26.0,-100.00,East,100,3.0,10.0,93,0.00,,,0.00,0.000000,,2013-01-26 09:02:00,
2013-01-26 04:11:00,27.0,24.0,-100.00,East,82,4.0,9.0,90,0.00,,,0.00,0.000000,,2013-01-26 09:11:00,
2013-01-26 04:32:00,27.0,24.0,-100.00,East,82,4.0,9.0,90,0.00,,,0.00,0.000000,,2013-01-26 09:32:00,
2013-01-26 04:42:00,27.0,24.0,-100.00,East,82,4.0,9.0,90,0.00,,,0.00,0.000000,,2013-01-26 09:42:00,
2013-01-26 04:52:00,27.0,24.0,-100.00,East,82,4.0,9.0,90,0.00,,,0.00,0.000000,,2013-01-26 09:52:00,
2013-01-26 05:01:00,27.0,24.0,-100.00,East,82,4.0,9.0,90,0.00,,,0.00,0.000000,,2013-01-26 10:01:00,
2013-01-26 05:11:00,27.0,25.0,-100.00,East,101,2.0,9.0,92,0.00,,,0.00,0.000000,,2013-01-26 10:11:00,
2013-01-26 05:32:00,27.0,25.0,-100.00,East,101,2.0,9.0,92,0.00,,,0.00,0.000000,,2013-01-26 10:32:00,
2013-01-26 05:43:00,27.0,25.0,-100.00,East,101,2.0,9.0,92,0.00,,,0.00,0.000000,,2013-01-26 10:43:00,
2013-01-26 05:52:00,27.0,25.0,-100.00,East,101,2.0,9.0,92,0.00,,,0.00,0.000000,,2013-01-26 10:52:00,
2013-01-26 06:02:00,27.0,25.0,-100.00,East,101,2.0,9.0,92,0.00,,,0.00,0.000000,,2013-01-26 11:02:00,
2013-01-26 06:11:00,25.0,23.0,-100.00,SE,138,1.0,6.0,92,0.00,,,0.00,0.000000,,2013-01-26 11:11:00,
2013-01-26 06:32:00,25.0,23.0,-100.00,SE,138,1.0,6.0,92,0.00,,,0.00,0.000000,,2013-01-26 11:32:00,
2013-01-26 06:42:00,25.0,23.0,-100.00,SE,138,1.0,6.0,92,0.00,,,0.00,0.000000,,2013-01-26 11:42:00,
2013-01-26 06:52:00,25.0,23.0,-100.00,SE,138,1.0,6.0,92,0.00,,,0.00,0.000000,,2013-01-26 11:52:00,
2013-01-26 07:02:00,25.0,23.0,-100.00,SE,138,1.0,6.0,92,0.00,,,0.00,0.000000,,2013-01-26 12:02:00,
2013-01-26 07:11:00,23.0,21.0,-100.00,SSE,149,1.0,4.0,92,0.00,,,0.00,0.000000,,2013-01-26 12:11:00,
2013-01-26 07:33:00,23.0,21.0,-100.00,SSE,149,1.0,4.0,92,0.00,,,0.00,0.000000,,2013-01-26 12:33:00,
2013-01-26 07:42:00,23.0,21.0,-100.00,SSE,149,1.0,4.0,92,0.00,,,0.00,0.000000,,2013-01-26 12:42:00,
2013-01-26 07:53:00,23.0,21.0,-100.00,SSE,149,1.0,4.0,92,0.00,,,0.00,0.000000,,2013-01-26 12:53:00,
2013-01-26 08:03:00,23.0,21.0,-100.00,SSE,149,1.0,4.0,92,0.00,,,0.00,0.000000,,2013-01-26 13:03:00,
2013-01-26 08:11:00,23.0,21.0,-100.00,ESE,117,1.0,3.0,92,0.00,,,0.00,18.000000,,2013-01-26 13:11:00,
2013-01-26 08:42:00,23.0,21.0,-100.00,ESE,117,1.0,3.0,92,0.00,,,0.00,18.000000,,2013-01-26 13:42:00,
2013-01-26 08:53:00,23.0,21.0,-100.00,ESE,117,1.0,3.0,92,0.00,,,0.00,18.000000,,2013-01-26 13:53:00,
2013-01-26 09:03:00,23.0,21.0,-100.00,ESE,117,1.0,3.0,92,0.00,,,0.00,18.000000,,2013-01-26 14:03:00,
2013-01-26 09:11:00,32.0,28.0,-100.00,ENE,77,2.0,3.0,84,0.00,,,0.00,206.000000,,2013-01-26 14:11:00,
2013-01-26 09:32:00,32.0,28.0,-100.00,ENE,77,2.0,3.0,84,0.00,,,0.00,206.000000,,2013-01-26 14:32:00,
2013-01-26 09:43:00,32.0,28.0,-100.00,ENE,77,2.0,3.0,84,0.00,,,0.00,206.000000,,2013-01-26 14:43:00,
2013-01-26 09:53:00,32.0,28.0,-100.00,ENE,77,2.0,3.0,84,0.00,,,0.00,206.000000,,2013-01-26 14:53:00,
2013-01-26 10:03:00,32.0,28.0,-100.00,ENE,77,2.0,3.0,84,0.00,,,0.00,206.000000,,2013-01-26 15:03:00,
2013-01-26 10:11:00,33.0,27.0,-100.00,ENE,74,3.0,5.0,77,0.05,,,0.05,334.000000,,2013-01-26 15:11:00,
2013-01-26 10:33:00,33.0,27.0,-100.00,ENE,74,3.0,5.0,77,0.05,,,0.05,334.000000,,2013-01-26 15:33:00,
2013-01-26 10:43:00,33.0,27.0,-100.00,ENE,74,3.0,5.0,77,0.05,,,0.05,334.000000,,2013-01-26 15:43:00,
2013-01-26 10:53:00,33.0,27.0,-100.00,ENE,74,3.0,5.0,77,0.05,,,0.05,334.000000,,2013-01-26 15:53:00,
2013-01-26 11:02:00,33.0,27.0,-100.00,ENE,74,3.0,5.0,77,0.05,,,0.05,334.000000,,2013-01-26 16:02:00,
2013-01-26 11:11:00,32.0,25.0,-100.00,ENE,78,4.0,9.0,75,0.02,,,0.07,394.000000,,2013-01-26 16:11:00,
2013-01-26 11:33:00,32.0,25.0,-100.00,ENE,78,4.0,9.0,75,0.02,,,0.07,394.000000,,2013-01-26 16:33:00,
2013-01-26 11:43:00,32.0,25.0,-100.00,ENE,78,4.0,9.0,75,0.02,,,0.07,394.000000,,2013-01-26 16:43:00,
2013-01-26 11:53:00,32.0,25.0,-100.00,ENE,78,4.0,9.0,75,0.02,,,0.07,394.000000,,2013-01-26 16:53:00,
2013-01-26 12:03:00,32.0,25.0,-100.00,ENE,78,4.0,9.0,75,0.02,,,0.07,394.000000,,2013-01-26 17:03:00,
2013-01-26 12:11:00,32.0,27.0,-100.00,East,94,3.0,9.0,81,0.02,,,0.09,324.000000,,2013-01-26 17:11:00,
2013-01-26 12:33:00,32.0,27.0,-100.00,East,94,3.0,9.0,81,0.02,,,0.09,324.000000,,2013-01-26 17:33:00,
2013-01-26 12:42:00,32.0,27.0,-100.00,East,94,3.0,9.0,81,0.02,,,0.09,324.000000,,2013-01-26 17:42:00,
2013-01-26 12:53:00,32.0,27.0,-100.00,East,94,3.0,9.0,81,0.02,,,0.09,324.000000,,2013-01-26 17:53:00,
2013-01-26 13:03:00,32.0,27.0,-100.00,East,94,3.0,9.0,81,0.02,,,0.09,324.000000,,2013-01-26 18:03:00,
2013-01-26 13:11:00,37.0,30.0,-100.00,East,96,3.0,6.0,77,0.07,,,0.16,445.000000,,2013-01-26 18:11:00,
2013-01-26 13:42:00,37.0,30.0,-100.00,East,96,3.0,6.0,77,0.07,,,0.16,445.000000,,2013-01-26 18:42:00,
2013-01-26 13:53:00,37.0,30.0,-100.00,East,96,3.0,6.0,77,0.07,,,0.16,445.000000,,2013-01-26 18:53:00,
2013-01-26 14:03:00,37.0,30.0,-100.00,East,96,3.0,6.0,77,0.07,,,0.16,445.000000,,2013-01-26 19:03:00,
2013-01-26 14:11:00,31.0,24.0,-100.00,SE,138,5.0,11.0,75,0.07,,,0.23,415.000000,,2013-01-26 19:11:00,
2013-01-26 14:33:00,31.0,24.0,-100.00,SE,138,5.0,11.0,75,0.07,,,0.23,415.000000,,2013-01-26 19:33:00,
2013-01-26 14:43:00,31.0,24.0,-100.00,SE,138,5.0,11.0,75,0.07,,,0.23,415.000000,,2013-01-26 19:43:00,
2013-01-26 14:53:00,31.0,24.0,-100.00,SE,138,5.0,11.0,75,0.07,,,0.23,415.000000,,2013-01-26 19:53:00,
2013-01-26 15:02:00,31.0,24.0,-100.00,SE,138,5.0,11.0,75,0.07,,,0.23,415.000000,,2013-01-26 20:02:00,
2013-01-26 15:11:00,32.0,27.0,-100.00,SE,134,4.0,6.0,80,0.04,,,0.27,294.000000,,2013-01-26 20:11:00,
2013-01-26 15:32:00,32.0,27.0,-100.00,SE,134,4.0,6.0,80,0.04,,,0.27,294.000000,,2013-01-26 20:32:00,
2013-01-26 15:42:00,32.0,27.0,-100.00,SE,134,4.0,6.0,80,0.04,,,0.27,294.000000,,2013-01-26 20:42:00,
2013-01-26 15:52:00,32.0,27.0,-100.00,SE,134,4.0,6.0,80,0.04,,,0.27,294.000000,,2013-01-26 20:52:00,
2013-01-26 16:03:00,32.0,27.0,-100.00,SE,134,4.0,6.0,80,0.04,,,0.27,294.000000,,2013-01-26 21:03:00,
2013-01-26 16:11:00,30.0,25.0,-100.00,SE,137,5.0,8.0,82,0.02,,,0.29,208.000000,,2013-01-26 21:11:00,
2013-01-26 16:32:00,30.0,25.0,-100.00,SE,137,5.0,8.0,82,0.02,,,0.29,208.000000,,2013-01-26 21:32:00,
2013-01-26 16:43:00,30.0,25.0,-100.00,SE,137,5.0,8.0,82,0.02,,,0.29,208.000000,,2013-01-26 21:43:00,
2013-01-26 16:52:00,30.0,25.0,-100.00,SE,137,5.0,8.0,82,0.02,,,0.29,208.000000,,2013-01-26 21:52:00,
2013-01-26 17:02:00,30.0,25.0,-100.00,SE,137,5.0,8.0,82,0.02,,,0.29,208.000000,,2013-01-26 22:02:00,
2013-01-26 17:11:00,28.0,24.0,-100.00,SE,135,3.0,7.0,85,0.01,,,0.30,80.000000,,2013-01-26 22:11:00,
2013-01-26 17:42:00,28.0,24.0,-100.00,SE,135,3.0,7.0,85,0.01,,,0.30,80.000000,,2013-01-26 22:42:00,
2013-01-26 17:52:00,28.0,24.0,-100.00,SE,135,3.0,7.0,85,0.01,,,0.30,80.000000,,2013-01-26 22:52:00,
2013-01-26 18:02:00,28.0,24.0,-100.00,SE,135,3.0,7.0,85,0.01,,,0.30,80.000000,,2013-01-26 23:02:00,
2013-01-26 18:11:00,27.0,24.0,-100.00,SE,146,4.0,6.0,88,0.00,,,0.30,11.000000,,2013-01-26 23:11:00,
2013-01-26 18:33:00,27.0,24.0,-100.00,SE,146,4.0,6.0,88,0.00,,,0.30,11.000000,,2013-01-26 23:33:00,
2013-01-26 18:42:00,27.0,24.0,-100.00,SE,146,4.0,6.0,88,0.00,,,0.30,11.000000,,2013-01-26 23:42:00,
2013-01-26 18:52:00,27.0,24.0,-100.00,SE,146,4.0,6.0,88,0.00,,,0.30,11.000000,,2013-01-26 23:52:00,
2013-01-26 19:02:00,27.0,24.0,-100.00,SE,146,4.0,6.0,88,0.00,,,0.30,11.000000,,2013-01-27 00:02:00,
2013-01-26 19:11:00,26.0,23.0,-100.00,SSE,149,4.0,6.0,89,0.00,,,0.30,0.000000,,2013-01-27 00:11:00,
2013-01-26 19:32:00,26.0,23.0,-100.00,SSE,149,4.0,6.0,89,0.00,,,0.30,0.000000,,2013-01-27 00:32:00,
2013-01-26 19:42:00,26.0,23.0,-100.00,SSE,149,4.0,6.0,89,0.00,,,0.30,0.000000,,2013-01-27 00:42:00,
2013-01-26 19:52:00,26.0,23.0,-100.00,SSE,149,4.0,6.0,89,0.00,,,0.30,0.000000,,2013-01-27 00:52:00,
2013-01-26 20:01:00,26.0,23.0,-100.00,SSE,149,4.0,6.0,89,0.00,,,0.30,0.000000,,2013-01-27 01:01:00,
2013-01-26 20:11:00,26.0,23.0,-100.00,SSE,149,4.0,7.0,89,0.00,,,0.30,0.000000,,2013-01-27 01:11:00,
2013-01-26 20:32:00,26.0,23.0,-100.00,SSE,149,4.0,7.0,89,0.00,,,0.30,0.000000,,2013-01-27 01:32:00,
2013-01-26 20:42:00,26.0,23.0,-100.00,SSE,149,4.0,7.0,89,0.00,,,0.30,0.000000,,2013-01-27 01:42:00,
2013-01-26 20:52:00,26.0,23.0,-100.00,SSE,149,4.0,7.0,89,0.00,,,0.30,0.000000,,2013-01-27 01:52:00,
2013-01-26 21:02:00,26.0,23.0,-100.00,SSE,149,4.0,7.0,89,0.00,,,0.30,0.000000,,2013-01-27 02:02:00,
2013-01-26 21:11:00,25.0,22.0,-100.00,ESE,104,2.0,7.0,87,0.00,,,0.30,0.000000,,2013-01-27 02:11:00,
2013-01-26 21:42:00,25.0,22.0,-100.00,ESE,104,2.0,7.0,87,0.00,,,0.30,0.000000,,2013-01-27 02:42:00,
2013-01-26 21:52:00,25.0,22.0,-100.00,ESE,104,2.0,7.0,87,0.00,,,0.30,0.000000,,2013-01-27 02:52:00,
2013-01-26 22:02:00,25.0,22.0,-100.00,ESE,104,2.0,7.0,87,0.00,,,0.30,0.000000,,2013-01-27 03:02:00,
2013-01-26 22:11:00,25.0,22.0,-100.00,WSW,243,3.0,6.0,88,0.00,,,0.30,0.000000,,2013-01-27 03:11:00,
2013-01-26 22:32:00,25.0,22.0,-100.00,WSW,243,3.0,6.0,88,0.00,,,0.30,0.000000,,2013-01-27 03:32:00,
2013-01-26 22:42:00,25.0,22.0,-100.00,WSW,243,3.0,6.0,88,0.00,,,0.30,0.000000,,2013-01-27 03:42:00,
2013-01-26 22:52:00,25.0,22.0,-100.00,WSW,243,3.0,6.0,88,0.00,,,0.30,0.000000,,2013-01-27 03:52:00,
2013-01-26 23:02:00,25.0,22.0,-100.00,WSW,243,3.0,6.0,88,0.00,,,0.30,0.000000,,2013-01-27 04:02:00,
2013-01-26 23:11:00,24.0,21.0,-100.00,South,179,3.0,7.0,88,0.00,,,0.30,0.000000,,2013-01-27 04:11:00,
2013-01-26 23:32:00,24.0,21.0,-100.00,South,179,3.0,7.0,88,0.00,,,0.30,0.000000,,2013-01-27 04:32:00,
2013-01-26 23:42:00,24.0,21.0,-100.00,South,179,3.0,7.0,88,0.00,,,0.30,0.000000,,2013-01-27 04:42:00,
2013-01-26 23:52:00,24.0,21.0,-100.00,South,179,3.0,7.0,88,0.00,,,0.30,0.000000,,2013-01-27 04:52:00,